Retour au catalogue

STARLINK-31471

ActifCommunicationsVLEO
NORAD 59568·PAYLOAD·🇺🇸 United States

Lancé Apr 23, 2024 depuis Cape Canaveral Space Force Station

Loading…

Prochains Passages (prochaines 24 heures)

TLE

FraisSource: CelesTrak SupGP

Époque: Sep 14, 2026, 22:13 UTC

1 59568C 24076E   26257.92618056  .00013518  00000+0  48979-3 0  2575
2 59568  43.0034  20.1539 0001485 275.4481 153.0217 15.27561412    12

Suivez STARLINK-31471 en temps réel avec AllMySat

Download on the App Store